| time (UTC) | temp F | wind direction | speed knots | gust knots | rain 1hr in | rain 24hr in | rain mn in | humidity % | barometer mb |
| 20260507011044 | 58 | 0 | 0.0 | 3.5 | 0.01 | 0.28 | 0.28 | 94 | 1006.6 |
| 20260507010539 | 58 | 233 | 0.0 | 3.5 | 0.01 | 0.28 | 0.28 | 94 | 1006.6 |
| 20260507010053 | 58 | 254 | 0.0 | 3.5 | 0.01 | 0.28 | 0.28 | 94 | 1006.8 |
| 20260507005541 | 57 | 295 | 0.0 | 1.7 | 0.01 | 0.28 | 0.28 | 94 | 1006.7 |
| 20260507005040 | 58 | 227 | 0.0 | 2.6 | 0.01 | 0.28 | 0.28 | 94 | 1006.8 |
| 20260507004550 | 58 | 0 | 0.0 | 2.6 | 0.01 | 0.28 | 0.28 | 94 | 1006.8 |
| 20260507004040 | 57 | 326 | 0.0 | 5.2 | 0.01 | 0.28 | 0.28 | 94 | 1006.7 |
| 20260507003541 | 57 | 213 | 0.9 | 5.2 | 0.01 | 0.28 | 0.28 | 94 | 1006.6 |
| 20260507003047 | 57 | 0 | 0.0 | 2.6 | 0.01 | 0.28 | 0.28 | 94 | 1006.7 |
| 20260507002540 | 57 | 0 | 0.9 | 3.5 | 0.01 | 0.28 | 0.28 | 94 | 1006.7 |
| 20260507002040 | 57 | 0 | 0.0 | 3.5 | 0.01 | 0.28 | 0.28 | 94 | 1006.6 |
| 20260507001607 | 57 | 201 | 0.0 | 5.2 | 0.01 | 0.28 | 0.28 | 94 | 1006.6 |
| 20260507001039 | 57 | 196 | 1.7 | 5.2 | 0.00 | 0.27 | 0.27 | 94 | 1006.5 |
| 20260507000540 | 57 | 235 | 0.0 | 5.2 | 0.00 | 0.27 | 0.27 | 94 | 1006.5 |
| 20260507000052 | 57 | 200 | 0.0 | 5.2 | 0.00 | 0.27 | 0.27 | 93 | 1006.6 |
| 20260506235539 | 57 | 204 | 1.7 | 4.3 | 0.00 | 0.27 | 0.27 | 94 | 1006.4 |
| 20260506235040 | 57 | 190 | 0.9 | 2.6 | 0.01 | 0.27 | 0.27 | 93 | 1006.5 |
| 20260506234558 | 57 | 228 | 0.0 | 1.7 | 0.01 | 0.27 | 0.27 | 94 | 1006.5 |
| 20260506234039 | 58 | 223 | 0.9 | 2.6 | 0.01 | 0.27 | 0.27 | 94 | 1006.5 |
| 20260506233541 | 58 | 0 | 0.0 | 4.3 | 0.02 | 0.27 | 0.27 | 93 | 1006.4 |
| 20260506233053 | 58 | 223 | 0.0 | 4.3 | 0.03 | 0.27 | 0.27 | 93 | 1006.3 |
| 20260506232539 | 58 | 218 | 0.0 | 1.7 | 0.04 | 0.27 | 0.27 | 94 | 1006.4 |
| 20260506232040 | 58 | 238 | 0.0 | 3.5 | 0.05 | 0.27 | 0.27 | 94 | 1006.5 |
| 20260506231554 | 58 | 0 | 0.9 | 3.5 | 0.05 | 0.27 | 0.27 | 94 | 1006.5 |
| 20260506231039 | 58 | 0 | 0.0 | 2.6 | 0.05 | 0.27 | 0.27 | 94 | 1006.2 |
| 20260506230540 | 58 | 257 | 0.0 | 2.6 | 0.05 | 0.27 | 0.27 | 94 | 1006.4 |
| 20260506230050 | 58 | 0 | 0.0 | 2.6 | 0.06 | 0.27 | 0.27 | 94 | 1006.4 |
| 20260506225543 | 58 | 183 | 0.0 | 2.6 | 0.06 | 0.27 | 0.27 | 94 | 1006.2 |
| 20260506225041 | 58 | 193 | 0.9 | 2.6 | 0.05 | 0.26 | 0.26 | 93 | 1006.5 |
| 20260506224606 | 58 | 0 | 0.0 | 2.6 | 0.06 | 0.26 | 0.26 | 93 | 1006.5 |
| 20260506224039 | 58 | 202 | 0.9 | 3.5 | 0.06 | 0.26 | 0.26 | 93 | 1006.6 |
| 20260506223540 | 58 | 186 | 0.0 | 3.5 | 0.06 | 0.25 | 0.25 | 93 | 1006.6 |
| 20260506223054 | 58 | 254 | 0.9 | 3.5 | 0.06 | 0.24 | 0.24 | 93 | 1006.6 |
| 20260506222541 | 58 | 198 | 0.9 | 3.5 | 0.06 | 0.23 | 0.23 | 93 | 1006.6 |
| 20260506222040 | 58 | 0 | 0.0 | 2.6 | 0.06 | 0.22 | 0.22 | 93 | 1006.7 |
| 20260506221550 | 58 | 0 | 0.0 | 4.3 | 0.06 | 0.22 | 0.22 | 93 | 1006.6 |
| 20260506221039 | 58 | 200 | 0.9 | 4.3 | 0.08 | 0.22 | 0.22 | 93 | 1006.6 |
| 20260506220539 | 58 | 235 | 0.0 | 2.6 | 0.09 | 0.22 | 0.22 | 93 | 1006.7 |
| 20260506220101 | 58 | 222 | 0.0 | 3.5 | 0.08 | 0.21 | 0.21 | 93 | 1006.7 |
| 20260506215541 | 58 | 0 | 0.9 | 3.5 | 0.08 | 0.21 | 0.21 | 93 | 1006.8 |
| 20260506215041 | 58 | 0 | 0.0 | 2.6 | 0.07 | 0.20 | 0.20 | 93 | 1006.7 |
| 20260506214551 | 58 | 217 | 0.9 | 5.2 | 0.07 | 0.20 | 0.20 | 93 | 1006.8 |
| 20260506214039 | 58 | 0 | 0.9 | 5.2 | 0.07 | 0.20 | 0.20 | 92 | 1006.8 |
| 20260506213539 | 58 | 242 | 0.9 | 2.6 | 0.06 | 0.19 | 0.19 | 93 | 1006.7 |
| 20260506213049 | 58 | 0 | 0.0 | 2.6 | 0.05 | 0.18 | 0.18 | 93 | 1006.8 |
| 20260506212540 | 58 | 205 | 0.0 | 4.3 | 0.05 | 0.17 | 0.17 | 92 | 1006.9 |
| 20260506212040 | 58 | 0 | 0.9 | 4.3 | 0.04 | 0.16 | 0.16 | 92 | 1006.9 |
| 20260506211554 | 58 | 200 | 0.0 | 2.6 | 0.04 | 0.16 | 0.16 | 92 | 1006.9 |
| 20260506211040 | 58 | 198 | 0.9 | 4.3 | 0.03 | 0.14 | 0.14 | 92 | 1007.0 |
| 20260506210540 | 58 | 193 | 0.9 | 4.3 | 0.02 | 0.13 | 0.13 | 91 | 1007.1 |
| 20260506210054 | 58 | 173 | 0.9 | 4.3 | 0.03 | 0.13 | 0.13 | 91 | 1007.1 |
| 20260506205539 | 58 | 157 | 0.9 | 4.3 | 0.03 | 0.13 | 0.13 | 92 | 1007.0 |
| 20260506205039 | 58 | 254 | 0.9 | 3.5 | 0.03 | 0.13 | 0.13 | 92 | 1007.1 |
| 20260506204548 | 58 | 0 | 0.9 | 4.3 | 0.04 | 0.13 | 0.13 | 92 | 1007.1 |
| 20260506204039 | 59 | 257 | 0.9 | 4.3 | 0.04 | 0.13 | 0.13 | 91 | 1007.2 |
| 20260506203540 | 59 | 171 | 0.9 | 3.5 | 0.05 | 0.13 | 0.13 | 92 | 1007.2 |
| 20260506203058 | 59 | 188 | 0.9 | 3.5 | 0.05 | 0.13 | 0.13 | 91 | 1007.2 |
| 20260506202541 | 59 | 272 | 0.9 | 3.5 | 0.04 | 0.12 | 0.12 | 91 | 1007.2 |
| 20260506202039 | 59 | 202 | 0.0 | 3.5 | 0.04 | 0.12 | 0.12 | 92 | 1007.5 |
| 20260506201551 | 59 | 232 | 0.9 | 3.5 | 0.03 | 0.11 | 0.11 | 91 | 1007.2 |
| 20260506201040 | 59 | 238 | 0.9 | 2.6 | 0.03 | 0.11 | 0.11 | 91 | 1007.4 |
| 20260506200539 | 59 | 169 | 0.0 | 3.5 | 0.04 | 0.11 | 0.11 | 91 | 1007.3 |
| 20260506200051 | 59 | 0 | 0.0 | 4.3 | 0.03 | 0.10 | 0.10 | 91 | 1007.5 |
| 20260506195540 | 59 | 181 | 0.9 | 4.3 | 0.03 | 0.10 | 0.10 | 91 | 1007.5 |
| 20260506195041 | 59 | 227 | 0.9 | 3.5 | 0.03 | 0.10 | 0.10 | 91 | 1007.4 |
| 20260506194553 | 59 | 168 | 0.0 | 3.5 | 0.03 | 0.09 | 0.09 | 91 | 1007.4 |
| 20260506194040 | 60 | 239 | 1.7 | 4.3 | 0.03 | 0.09 | 0.09 | 90 | 1007.5 |
| 20260506193539 | 60 | 167 | 1.7 | 4.3 | 0.02 | 0.08 | 0.08 | 90 | 1007.6 |
| 20260506193052 | 60 | 170 | 0.9 | 3.5 | 0.03 | 0.08 | 0.08 | 91 | 1007.5 |
| 20260506192540 | 60 | 175 | 0.9 | 3.5 | 0.04 | 0.08 | 0.08 | 90 | 1007.5 |
| 20260506192040 | 60 | 186 | 0.9 | 3.5 | 0.05 | 0.08 | 0.08 | 90 | 1007.6 |
| 20260506191548 | 60 | 195 | 0.9 | 4.3 | 0.05 | 0.08 | 0.08 | 90 | 1007.5 |
| 20260506191040 | 60 | 171 | 1.7 | 4.3 | 0.06 | 0.08 | 0.08 | 90 | 1007.6 |
| 20260506190542 | 60 | 219 | 0.9 | 5.2 | 0.05 | 0.07 | 0.07 | 90 | 1007.6 |
| 20260506190052 | 60 | 210 | 1.7 | 5.2 | 0.05 | 0.07 | 0.07 | 90 | 1007.5 |
| 20260506185539 | 60 | 221 | 0.0 | 2.6 | 0.06 | 0.07 | 0.07 | 90 | 1007.7 |
| 20260506185040 | 60 | 213 | 0.0 | 3.5 | 0.07 | 0.07 | 0.07 | 90 | 1007.6 |
| 20260506184551 | 61 | 0 | 0.0 | 4.3 | 0.06 | 0.06 | 0.06 | 89 | 1007.3 |
| 20260506184040 | 61 | 219 | 0.9 | 4.3 | 0.06 | 0.06 | 0.06 | 88 | 1007.5 |
| 20260506183543 | 61 | 140 | 0.9 | 4.3 | 0.06 | 0.06 | 0.06 | 88 | 1007.7 |
| 20260506183058 | 61 | 0 | 0.9 | 4.3 | 0.05 | 0.05 | 0.05 | 87 | 1007.8 |
| 20260506182540 | 62 | 206 | 0.9 | 4.3 | 0.04 | 0.04 | 0.04 | 87 | 1007.8 |
| 20260506182039 | 62 | 190 | 0.0 | 1.7 | 0.03 | 0.03 | 0.03 | 86 | 1008.2 |
| 20260506181604 | 62 | 0 | 0.0 | 1.7 | 0.03 | 0.03 | 0.03 | 86 | 1008.2 |
| 20260506181040 | 63 | 223 | 0.0 | 2.6 | 0.02 | 0.02 | 0.02 | 85 | 1008.3 |
| 20260506180541 | 63 | 0 | 0.0 | 2.6 | 0.02 | 0.02 | 0.02 | 83 | 1008.1 |
| 20260506180054 | 64 | 0 | 0.9 | 3.5 | 0.01 | 0.01 | 0.01 | 82 | 1008.3 |
| 20260506175540 | 64 | 0 | 0.0 | 3.5 | 0.01 | 0.01 | 0.01 | 80 | 1008.5 |
| 20260506175039 | 65 | 313 | 0.9 | 3.5 | 0.00 | 0.00 | 0.00 | 78 | 1008.5 |
| 20260506174545 | 66 | 285 | 0.9 | 7.8 | 0.00 | 0.00 | 0.00 | 74 | 1008.5 |
| 20260506174040 | 67 | 237 | 1.7 | 7.8 | 0.00 | 0.00 | 0.00 | 72 | 1008.6 |
| 20260506173542 | 68 | 259 | 0.9 | 7.0 | 0.00 | 0.00 | 0.00 | 69 | 1008.5 |
| 20260506173107 | 69 | 157 | 2.6 | 7.0 | 0.00 | 0.00 | 0.00 | 67 | 1008.2 |
| 20260506172541 | 69 | 178 | 1.7 | 5.2 | 0.00 | 0.00 | 0.00 | 67 | 1008.1 |
| 20260506172041 | 69 | 207 | 0.9 | 4.3 | 0.00 | 0.00 | 0.00 | 66 | 1008.1 |
| 20260506171553 | 69 | 199 | 1.7 | 7.8 | 0.00 | 0.00 | 0.00 | 65 | 1008.1 |
| 20260506171043 | 69 | 132 | 2.6 | 7.8 | 0.00 | 0.00 | 0.00 | 64 | 1008.0 |
| 20260506170541 | 69 | 217 | 0.9 | 6.1 | 0.00 | 0.00 | 0.00 | 65 | 1008.0 |
| 20260506170059 | 69 | 155 | 2.6 | 7.8 | 0.00 | 0.00 | 0.00 | 64 | 1008.1 |
| 20260506165543 | 69 | 212 | 2.6 | 8.7 | 0.00 | 0.00 | 0.00 | 63 | 1008.2 |
| 20260506165041 | 70 | 183 | 2.6 | 8.7 | 0.00 | 0.00 | 0.00 | 62 | 1008.1 |
| 20260506164552 | 70 | 253 | 1.7 | 6.1 | 0.00 | 0.00 | 0.00 | 62 | 1008.3 |
| 20260506164040 | 70 | 213 | 1.7 | 5.2 | 0.00 | 0.00 | 0.00 | 62 | 1008.2 |
| 20260506163544 | 70 | 269 | 1.7 | 7.8 | 0.00 | 0.00 | 0.00 | 62 | 1008.2 |
| 20260506163047 | 69 | 192 | 2.6 | 7.8 | 0.00 | 0.00 | 0.00 | 63 | 1008.2 |
| 20260506162542 | 69 | 181 | 0.9 | 4.3 | 0.00 | 0.00 | 0.00 | 64 | 1008.4 |
| 20260506162042 | 69 | 246 | 0.9 | 3.5 | 0.00 | 0.00 | 0.00 | 65 | 1008.5 |
| 20260506161550 | 69 | 211 | 0.9 | 4.3 | 0.00 | 0.00 | 0.00 | 64 | 1008.6 |
| 20260506161040 | 69 | 194 | 0.9 | 5.2 | 0.00 | 0.00 | 0.00 | 64 | 1008.8 |
| 20260506160540 | 69 | 210 | 0.9 | 6.1 | 0.00 | 0.00 | 0.00 | 64 | 1008.9 |
| 20260506155541 | 69 | 248 | 1.7 | 8.7 | 0.00 | 0.00 | 0.00 | 64 | 1009.1 |
| 20260506155041 | 69 | 207 | 3.5 | 8.7 | 0.00 | 0.00 | 0.00 | 64 | 1009.1 |
| 20260506154551 | 69 | 243 | 0.9 | 5.2 | 0.00 | 0.00 | 0.00 | 65 | 1009.2 |
| 20260506154043 | 68 | 161 | 0.9 | 5.2 | 0.00 | 0.00 | 0.00 | 64 | 1009.2 |
| 20260506153540 | 68 | 216 | 0.9 | 7.0 | 0.00 | 0.00 | 0.00 | 66 | 1009.3 |
| 20260506153047 | 68 | 253 | 1.7 | 7.8 | 0.00 | 0.00 | 0.00 | 65 | 1009.4 |
| 20260506152540 | 68 | 184 | 2.6 | 7.8 | 0.00 | 0.00 | 0.00 | 65 | 1009.3 |
| 20260506152041 | 68 | 200 | 0.9 | 7.0 | 0.00 | 0.00 | 0.00 | 66 | 1009.3 |
| 20260506151547 | 68 | 190 | 1.7 | 7.0 | 0.00 | 0.00 | 0.00 | 65 | 1009.4 |
| 20260506151040 | 68 | 309 | 0.9 | 6.1 | 0.00 | 0.00 | 0.00 | 66 | 1009.5 |
| 20260506150542 | 68 | 194 | 1.7 | 7.8 | 0.00 | 0.00 | 0.00 | 66 | 1009.6 |
| 20260506150051 | 68 | 241 | 0.9 | 8.7 | 0.00 | 0.00 | 0.00 | 67 | 1009.6 |
| 20260506145541 | 68 | 351 | 1.7 | 8.7 | 0.00 | 0.00 | 0.00 | 66 | 1009.7 |
| 20260506145040 | 69 | 142 | 1.7 | 5.2 | 0.00 | 0.00 | 0.00 | 67 | 1009.6 |
| 20260506144552 | 68 | 248 | 0.9 | 5.2 | 0.00 | 0.00 | 0.00 | 68 | 1009.6 |
| 20260506144040 | 68 | 240 | 1.7 | 7.0 | 0.00 | 0.00 | 0.00 | 68 | 1009.5 |
| 20260506143539 | 67 | 189 | 2.6 | 7.8 | 0.00 | 0.00 | 0.00 | 68 | 1009.8 |
| 20260506143051 | 67 | 0 | 2.6 | 7.8 | 0.00 | 0.00 | 0.00 | 69 | 1009.8 |
| 20260506142539 | 67 | 230 | 1.7 | 7.8 | 0.00 | 0.00 | 0.00 | 69 | 1009.7 |
| 20260506142042 | 67 | 207 | 1.7 | 8.7 | 0.00 | 0.00 | 0.00 | 69 | 1009.7 |
| 20260506141545 | 67 | 235 | 1.7 | 8.7 | 0.00 | 0.00 | 0.00 | 70 | 1009.6 |
| 20260506141039 | 67 | 250 | 1.7 | 5.2 | 0.00 | 0.00 | 0.00 | 70 | 1009.6 |
| 20260506140542 | 66 | 211 | 1.7 | 4.3 | 0.00 | 0.00 | 0.00 | 70 | 1009.7 |
| 20260506140049 | 66 | 122 | 0.0 | 6.1 | 0.00 | 0.00 | 0.00 | 71 | 1009.5 |
| 20260506135538 | 66 | 144 | 1.7 | 6.1 | 0.00 | 0.00 | 0.00 | 71 | 1009.5 |
| 20260506135040 | 66 | 171 | 1.7 | 7.0 | 0.00 | 0.00 | 0.00 | 71 | 1009.4 |
| 20260506134551 | 66 | 223 | 2.6 | 7.0 | 0.00 | 0.00 | 0.00 | 71 | 1009.3 |
| 20260506134040 | 66 | 9 | 1.7 | 5.2 | 0.00 | 0.00 | 0.00 | 72 | 1009.7 |
| 20260506133541 | 66 | 175 | 1.7 | 5.2 | 0.00 | 0.00 | 0.00 | 72 | 1009.7 |
| 20260506133045 | 66 | 198 | 0.9 | 5.2 | 0.00 | 0.00 | 0.00 | 73 | 1009.5 |
| 20260506132540 | 65 | 256 | 0.9 | 6.1 | 0.00 | 0.00 | 0.00 | 73 | 1009.8 |
| 20260506132042 | 65 | 175 | 1.7 | 6.1 | 0.00 | 0.00 | 0.00 | 74 | 1009.6 |
| 20260506131558 | 65 | 126 | 0.9 | 4.3 | 0.00 | 0.00 | 0.00 | 74 | 1009.8 |
| 20260506131041 | 65 | 202 | 1.7 | 5.2 | 0.00 | 0.00 | 0.00 | 74 | 1010.0 |
| 20260506130540 | 64 | 225 | 1.7 | 5.2 | 0.00 | 0.00 | 0.00 | 75 | 1010.1 |
| 20260506130053 | 64 | 0 | 0.9 | 5.2 | 0.00 | 0.00 | 0.00 | 76 | 1010.1 |
| 20260506125539 | 64 | 213 | 1.7 | 5.2 | 0.00 | 0.00 | 0.00 | 76 | 1010.3 |
| 20260506125039 | 64 | 221 | 0.9 | 5.2 | 0.00 | 0.00 | 0.00 | 76 | 1010.3 |
| 20260506124552 | 63 | 190 | 0.0 | 3.5 | 0.00 | 0.00 | 0.00 | 76 | 1010.4 |
| 20260506124039 | 63 | 202 | 0.9 | 3.5 | 0.00 | 0.00 | 0.00 | 76 | 1010.2 |
| 20260506123539 | 63 | 0 | 0.9 | 8.7 | 0.00 | 0.00 | 0.00 | 76 | 1010.2 |
| 20260506123048 | 63 | 192 | 1.7 | 9.6 | 0.00 | 0.00 | 0.00 | 76 | 1010.2 |
| 20260506122539 | 64 | 206 | 1.7 | 9.6 | 0.00 | 0.00 | 0.00 | 76 | 1010.2 |
| 20260506122038 | 63 | 209 | 0.9 | 5.2 | 0.00 | 0.00 | 0.00 | 77 | 1010.1 |
| 20260506121548 | 63 | 242 | 1.7 | 3.5 | 0.00 | 0.00 | 0.00 | 78 | 1009.9 |
| 20260506121041 | 62 | 207 | 0.0 | 5.2 | 0.00 | 0.00 | 0.00 | 78 | 1010.1 |
| 20260506120541 | 62 | 258 | 1.7 | 5.2 | 0.00 | 0.00 | 0.00 | 78 | 1010.2 |
| 20260506120049 | 62 | 227 | 1.7 | 5.2 | 0.00 | 0.00 | 0.00 | 78 | 1010.4 |
| 20260506115541 | 62 | 245 | 1.7 | 5.2 | 0.00 | 0.00 | 0.00 | 78 | 1010.3 |
| 20260506115038 | 62 | 244 | 1.7 | 7.0 | 0.00 | 0.00 | 0.00 | 78 | 1010.2 |
| 20260506114547 | 62 | 233 | 0.9 | 7.8 | 0.00 | 0.00 | 0.00 | 79 | 1009.9 |
| 20260506114039 | 61 | 233 | 1.7 | 7.8 | 0.00 | 0.00 | 0.00 | 79 | 1010.0 |
| 20260506113539 | 61 | 271 | 0.9 | 5.2 | 0.00 | 0.00 | 0.00 | 80 | 1010.1 |
| 20260506113046 | 60 | 188 | 0.9 | 3.5 | 0.00 | 0.00 | 0.00 | 80 | 1010.4 |
| 20260506112541 | 60 | 248 | 0.9 | 2.6 | 0.00 | 0.00 | 0.00 | 81 | 1010.3 |
| 20260506112038 | 60 | 209 | 0.9 | 2.6 | 0.00 | 0.00 | 0.00 | 80 | 1010.4 |
| 20260506111552 | 60 | 217 | 0.0 | 2.6 | 0.00 | 0.00 | 0.00 | 80 | 1010.4 |
| 20260506111037 | 60 | 196 | 0.0 | 2.6 | 0.00 | 0.00 | 0.00 | 81 | 1010.6 |
| 20260506110538 | 60 | 0 | 0.9 | 2.6 | 0.00 | 0.00 | 0.00 | 81 | 1010.7 |
| 20260506110050 | 60 | 230 | 0.9 | 4.3 | 0.00 | 0.00 | 0.00 | 81 | 1010.7 |
| 20260506105539 | 60 | 250 | 0.9 | 4.3 | 0.00 | 0.00 | 0.00 | 81 | 1010.4 |
| 20260506105039 | 59 | 198 | 1.7 | 4.3 | 0.00 | 0.00 | 0.00 | 81 | 1010.3 |
| 20260506104550 | 59 | 182 | 0.9 | 3.5 | 0.00 | 0.00 | 0.00 | 82 | 1010.4 |
| 20260506104038 | 59 | 187 | 0.9 | 3.5 | 0.00 | 0.00 | 0.00 | 82 | 1010.4 |
| 20260506103538 | 58 | 0 | 0.0 | 6.1 | 0.00 | 0.00 | 0.00 | 83 | 1010.6 |
| 20260506103044 | 58 | 217 | 0.9 | 6.1 | 0.00 | 0.00 | 0.00 | 83 | 1010.3 |
| 20260506102538 | 58 | 0 | 0.0 | 3.5 | 0.00 | 0.00 | 0.00 | 83 | 1010.4 |
| 20260506102037 | 58 | 0 | 0.0 | 1.7 | 0.00 | 0.00 | 0.00 | 83 | 1010.3 |
| 20260506101544 | 58 | 0 | 0.9 | 1.7 | 0.00 | 0.00 | 0.00 | 82 | 1010.2 |
| 20260506101038 | 58 | 0 | 0.0 | 1.7 | 0.00 | 0.00 | 0.00 | 82 | 1010.2 |
| 20260506100539 | 58 | 0 | 0.0 | 2.6 | 0.00 | 0.00 | 0.00 | 82 | 1010.4 |
| 20260506100051 | 58 | 0 | 0.9 | 3.5 | 0.00 | 0.00 | 0.00 | 82 | 1010.4 |
| 20260506095538 | 58 | 0 | 0.9 | 3.5 | 0.00 | 0.00 | 0.00 | 82 | 1010.4 |
| 20260506095040 | 58 | 205 | 0.0 | 3.5 | 0.00 | 0.00 | 0.00 | 82 | 1010.3 |
| 20260506094604 | 58 | 220 | 0.0 | 3.5 | 0.00 | 0.00 | 0.00 | 82 | 1010.3 |
| 20260506094037 | 58 | 0 | 0.0 | 2.6 | 0.00 | 0.00 | 0.00 | 81 | 1010.2 |
| 20260506093540 | 58 | 0 | 0.0 | 2.6 | 0.00 | 0.00 | 0.00 | 81 | 1010.3 |
| 20260506093047 | 58 | 0 | 0.0 | 1.7 | 0.00 | 0.00 | 0.00 | 81 | 1010.3 |
| 20260506092538 | 58 | 0 | 0.0 | 2.6 | 0.00 | 0.00 | 0.00 | 81 | 1010.3 |
| 20260506092038 | 58 | 0 | 0.0 | 2.6 | 0.00 | 0.00 | 0.00 | 80 | 1010.3 |
| 20260506091549 | 58 | 275 | 0.9 | 2.6 | 0.00 | 0.00 | 0.00 | 81 | 1010.1 |
| 20260506091039 | 58 | 259 | 0.0 | 2.6 | 0.00 | 0.00 | 0.00 | 80 | 1010.2 |
| 20260506090538 | 58 | 0 | 0.9 | 5.2 | 0.00 | 0.00 | 0.00 | 80 | 1010.4 |
| 20260506090046 | 58 | 253 | 0.9 | 5.2 | 0.00 | 0.00 | 0.00 | 80 | 1010.3 |
| 20260506085538 | 58 | 182 | 0.9 | 4.3 | 0.00 | 0.00 | 0.00 | 80 | 1010.3 |
| 20260506085039 | 58 | 219 | 0.0 | 4.3 | 0.00 | 0.00 | 0.00 | 80 | 1010.2 |
| 20260506084550 | 58 | 200 | 0.0 | 4.3 | 0.00 | 0.00 | 0.00 | 80 | 1010.2 |
| 20260506084039 | 58 | 200 | 0.9 | 4.3 | 0.00 | 0.00 | 0.00 | 80 | 1010.4 |
| 20260506083543 | 58 | 0 | 0.9 | 4.3 | 0.00 | 0.00 | 0.00 | 80 | 1010.4 |
| 20260506083051 | 58 | 180 | 0.9 | 2.6 | 0.00 | 0.00 | 0.00 | 80 | 1010.4 |
| 20260506082538 | 58 | 221 | 0.9 | 3.5 | 0.00 | 0.00 | 0.00 | 80 | 1010.5 |
| 20260506082038 | 58 | 246 | 0.9 | 3.5 | 0.00 | 0.00 | 0.00 | 80 | 1010.4 |
| 20260506081546 | 58 | 229 | 0.9 | 2.6 | 0.00 | 0.00 | 0.00 | 80 | 1010.4 |
| 20260506081040 | 58 | 0 | 0.0 | 3.5 | 0.00 | 0.00 | 0.00 | 79 | 1010.5 |
| 20260506080541 | 59 | 0 | 0.0 | 3.5 | 0.00 | 0.00 | 0.00 | 79 | 1010.6 |
| 20260506073050 | 60 | 0 | 0.0 | 4.3 | 0.00 | 0.00 | 0.00 | 76 | 1010.4 |
| 20260506072543 | 60 | 200 | 0.0 | 2.6 | 0.00 | 0.00 | 0.00 | 76 | 1010.5 |
| 20260506072039 | 60 | 0 | 0.0 | 5.2 | 0.00 | 0.00 | 0.00 | 76 | 1010.5 |
| 20260506071551 | 60 | 0 | 0.9 | 5.2 | 0.00 | 0.00 | 0.00 | 76 | 1010.4 |
| 20260506071038 | 60 | 0 | 0.0 | 3.5 | 0.00 | 0.00 | 0.00 | 75 | 1010.3 |
| 20260506070542 | 60 | 0 | 0.9 | 4.3 | 0.00 | 0.00 | 0.00 | 75 | 1010.3 |
| 20260506062046 | 61 | 258 | 0.9 | 2.6 | 0.00 | 0.00 | 0.00 | 73 | 1010.1 |
| 20260506061547 | 61 | 255 | 0.9 | 2.6 | 0.00 | 0.00 | 0.00 | 72 | 1010.1 |
| 20260506061041 | 62 | 221 | 0.0 | 3.5 | 0.00 | 0.00 | 0.00 | 72 | 1010.1 |
| 20260506060541 | 62 | 0 | 0.9 | 4.3 | 0.00 | 0.00 | 0.00 | 72 | 1010.2 |
| 20260506060112 | 62 | 265 | 0.9 | 4.3 | 0.00 | 0.00 | 0.00 | 71 | 1010.2 |
| 20260506051037 | 62 | 0 | 0.0 | 3.5 | 0.00 | 0.00 | 0.00 | 68 | 1010.3 |
| 20260506050537 | 62 | 269 | 0.9 | 3.5 | 0.00 | 0.00 | 0.00 | 68 | 1010.3 |
| 20260506045041 | 63 | 213 | 0.9 | 7.8 | 0.00 | 0.00 | 0.00 | 67 | 1010.6 |
| 20260506044549 | 63 | 235 | 0.9 | 5.2 | 0.00 | 0.00 | 0.00 | 67 | 1010.5 |
| 20260506044038 | 63 | 207 | 1.7 | 5.2 | 0.00 | 0.00 | 0.00 | 67 | 1010.4 |
| 20260506043537 | 63 | 234 | 0.9 | 5.2 | 0.00 | 0.00 | 0.00 | 67 | 1010.5 |
| 20260506043050 | 62 | 186 | 0.9 | 5.2 | 0.00 | 0.00 | 0.00 | 67 | 1010.5 |
| 20260506042538 | 62 | 289 | 0.9 | 5.2 | 0.00 | 0.00 | 0.00 | 67 | 1010.5 |
| 20260506042038 | 62 | 209 | 0.9 | 5.2 | 0.00 | 0.00 | 0.00 | 68 | 1010.6 |
| 20260506041550 | 62 | 0 | 0.9 | 4.3 | 0.00 | 0.00 | 0.00 | 68 | 1010.6 |
| 20260506041037 | 62 | 267 | 0.9 | 4.3 | 0.00 | 0.00 | 0.00 | 67 | 1010.6 |
| 20260506040538 | 62 | 255 | 1.7 | 4.3 | 0.00 | 0.00 | 0.00 | 67 | 1010.6 |
| 20260506040052 | 62 | 218 | 0.9 | 3.5 | 0.00 | 0.00 | 0.00 | 67 | 1010.5 |
| 20260506035538 | 62 | 208 | 0.0 | 3.5 | 0.00 | 0.00 | 0.00 | 67 | 1010.6 |
| 20260506035037 | 62 | 219 | 0.9 | 5.2 | 0.00 | 0.00 | 0.00 | 67 | 1010.7 |
| 20260506034551 | 62 | 0 | 0.9 | 5.2 | 0.00 | 0.00 | 0.00 | 68 | 1010.6 |
| 20260506034039 | 62 | 0 | 0.9 | 4.3 | 0.00 | 0.00 | 0.00 | 67 | 1010.6 |
| 20260506033537 | 62 | 252 | 0.9 | 4.3 | 0.00 | 0.00 | 0.00 | 67 | 1010.5 |
| 20260506033052 | 62 | 231 | 0.9 | 4.3 | 0.00 | 0.00 | 0.00 | 67 | 1010.6 |
| 20260506032542 | 62 | 262 | 0.0 | 4.3 | 0.00 | 0.00 | 0.00 | 67 | 1010.5 |
| 20260506032041 | 62 | 244 | 0.9 | 5.2 | 0.00 | 0.00 | 0.00 | 67 | 1010.5 |
| 20260506031556 | 62 | 261 | 0.0 | 6.1 | 0.00 | 0.00 | 0.00 | 66 | 1010.5 |
| 20260506031044 | 62 | 241 | 0.9 | 6.1 | 0.00 | 0.00 | 0.00 | 66 | 1010.6 |
| 20260506030541 | 63 | 259 | 0.9 | 5.2 | 0.00 | 0.00 | 0.00 | 66 | 1010.5 |
| 20260506030050 | 63 | 239 | 0.9 | 5.2 | 0.00 | 0.00 | 0.00 | 65 | 1010.6 |
| 20260506025538 | 63 | 286 | 1.7 | 5.2 | 0.00 | 0.00 | 0.00 | 65 | 1010.6 |
| 20260506025038 | 63 | 294 | 0.9 | 5.2 | 0.00 | 0.00 | 0.00 | 65 | 1010.6 |
| 20260506024558 | 63 | 350 | 1.7 | 5.2 | 0.00 | 0.00 | 0.00 | 64 | 1010.4 |
| 20260506024038 | 63 | 243 | 0.9 | 4.3 | 0.00 | 0.00 | 0.00 | 64 | 1010.5 |
| 20260506023538 | 63 | 252 | 0.9 | 4.3 | 0.00 | 0.00 | 0.00 | 64 | 1010.4 |
| 20260506023050 | 64 | 273 | 0.9 | 4.3 | 0.00 | 0.00 | 0.00 | 63 | 1010.4 |
| 20260506022537 | 64 | 180 | 0.9 | 7.0 | 0.00 | 0.00 | 0.00 | 63 | 1010.3 |
| 20260506022037 | 64 | 261 | 0.9 | 7.0 | 0.00 | 0.00 | 0.00 | 63 | 1010.4 |
| 20260506021547 | 64 | 215 | 1.7 | 5.2 | 0.00 | 0.00 | 0.00 | 63 | 1010.3 |
| 20260506021039 | 64 | 0 | 0.0 | 4.3 | 0.00 | 0.00 | 0.00 | 63 | 1010.3 |
| 20260506020538 | 64 | 243 | 0.9 | 4.3 | 0.00 | 0.00 | 0.00 | 62 | 1010.4 |
| 20260506020045 | 64 | 208 | 0.0 | 2.6 | 0.00 | 0.00 | 0.00 | 63 | 1010.4 |
| 20260506015539 | 64 | 0 | 0.0 | 2.6 | 0.00 | 0.00 | 0.00 | 63 | 1010.4 |
| 20260506015038 | 65 | 134 | 0.0 | 2.6 | 0.00 | 0.00 | 0.00 | 62 | 1010.3 |
| 20260506014551 | 65 | 0 | 0.0 | 2.6 | 0.00 | 0.00 | 0.00 | 62 | 1010.2 |
| 20260506014041 | 65 | 257 | 0.0 | 3.5 | 0.00 | 0.00 | 0.00 | 61 | 1010.2 |
| 20260506013538 | 65 | 204 | 0.0 | 3.5 | 0.00 | 0.00 | 0.00 | 61 | 1010.1 |
| 20260506013046 | 65 | 0 | 0.9 | 4.3 | 0.00 | 0.00 | 0.00 | 61 | 1009.9 |
| 20260506012539 | 66 | 241 | 0.0 | 5.2 | 0.00 | 0.00 | 0.00 | 61 | 1009.8 |
| 20260506012041 | 66 | 0 | 0.9 | 5.2 | 0.00 | 0.00 | 0.00 | 60 | 1009.7 |
| 20260506011550 | 66 | 303 | 0.9 | 3.5 | 0.00 | 0.00 | 0.00 | 60 | 1009.6 |